彩虹 29星 (RADUGA 29)

导读

RADUGA 29又名彩虹29号,属于俄罗斯“虹”号通信卫星系列的一员,由独立国家联合体(CIS)发射,于1993年3月25日上午8点从拜科努尔发射场由质子K Blok-DM2运载火箭送入太空。该卫星设计寿命3年,发射质量约2000千克,运行在地球同步轨道,主要承担东半球范围内军事通信及民用通信传输任务,属于第一代“虹”系列通信卫星。

基本信息
目录编号:
22557
目录名称:
RADUGA 29
国际标识:
1993-013A
轨道中心:
EARTH
卫星名称:
彩虹 29星
卫星全名:
彩虹 29星 (RADUGA 29)
卫星状态:
在轨 (已飞行12132 天)
发射日期:
1993-03-25 UTC
国别 :
俄罗斯(独联体) (CIS)
星等 :
--
轨道信息
数据来源 国际轨道数据
星历时间: 2026-06-12T06:20:41+0800
21小时前
查看轨道信息
半长轴: 42143.576km
偏心率: 0.0003857
轨道倾角: 13.842°
近地点辐角 184.629°
升交点赤经 345.157°
平近点角 180.262°
近地点: 35749.184km
远地点: 35781.694km
周期: 1435.016分钟
每日圈数: 1.003473
详细信息
平衡模式:
三轴稳定
覆盖范围:
全球
运营商:
俄罗斯国家航天集团
运营商所在国:
俄罗斯
制造商(研发单位):
普里克拉德诺伊·梅哈尼基设计局
制造商所在国:
俄罗斯联邦
使用方式:
暂无
卫星简介
彩虹卫星(Raduga, Gran)是苏联用于军事和通信目的的一系列地球静止通信卫星。彩虹卫星旨在支持军事通信、Orbita地面电视网络,并在整个东半球(极地地区除外)提供电话和电报通信。该卫星已退役。
2D轨道图
3D轨道图
轨道高度分析图
轨道倾角分析图
轨道综合分析图
查看轨道综合分析图